| time (UTC) | temp C | wind direction | speed KPH | gust KPH | rain 1hr cm | rain 24hr cm | rain mn cm | humidity % | barometer mb |
| 20260509194404 | 26 | 223 | 3.2 | 12.9 | 0.00 | 0.00 | 0.00 | 14 | 1003.7 |
| 20260509193405 | 27 | 309 | 3.2 | 11.3 | 0.00 | 0.00 | 0.00 | 13 | 1003.7 |
| 20260509192904 | 26 | 314 | 4.8 | 11.3 | 0.00 | 0.00 | 0.00 | 14 | 1003.8 |
| 20260509192404 | 26 | 239 | 3.2 | 16.1 | 0.00 | 0.00 | 0.00 | 14 | 1003.9 |
| 20260509191904 | 26 | 332 | 4.8 | 16.1 | 0.00 | 0.00 | 0.00 | 14 | 1004.0 |
| 20260509191404 | 26 | 197 | 1.6 | 11.3 | 0.00 | 0.00 | 0.00 | 13 | 1004.1 |
| 20260509190404 | 26 | 254 | 3.2 | 9.7 | 0.00 | 0.00 | 0.00 | 13 | 1004.2 |
| 20260509185404 | 26 | 65 | 3.2 | 9.7 | 0.00 | 0.00 | 0.00 | 14 | 1004.4 |
| 20260509183404 | 26 | 224 | 3.2 | 11.3 | 0.00 | 0.00 | 0.00 | 13 | 1004.7 |
| 20260509182904 | 26 | 24 | 3.2 | 11.3 | 0.00 | 0.00 | 0.00 | 14 | 1004.8 |
| 20260509180904 | 26 | 298 | 3.2 | 11.3 | 0.00 | 0.00 | 0.00 | 15 | 1005.1 |
| 20260509180404 | 26 | 336 | 1.6 | 16.1 | 0.00 | 0.00 | 0.00 | 16 | 1005.1 |
| 20260509175904 | 25 | 257 | 3.2 | 16.1 | 0.00 | 0.00 | 0.00 | 17 | 1005.2 |
| 20260509175403 | 25 | 276 | 3.2 | 12.9 | 0.00 | 0.00 | 0.00 | 16 | 1005.3 |
| 20260509174904 | 25 | 317 | 3.2 | 11.3 | 0.00 | 0.00 | 0.00 | 16 | 1005.3 |
| 20260509172404 | 25 | 17 | 1.6 | 19.3 | 0.00 | 0.00 | 0.00 | 15 | 1005.8 |
| 20260509171904 | 25 | 310 | 4.8 | 11.3 | 0.00 | 0.00 | 0.00 | 15 | 1006.0 |
| 20260509170904 | 25 | 309 | 4.8 | 12.9 | 0.00 | 0.00 | 0.00 | 16 | 1006.1 |
| 20260509170404 | 25 | 318 | 4.8 | 9.7 | 0.00 | 0.00 | 0.00 | 16 | 1006.2 |
| 20260509164904 | 24 | 15 | 3.2 | 11.3 | 0.00 | 0.00 | 0.00 | 15 | 1006.1 |
| 20260509163904 | 24 | 324 | 3.2 | 11.3 | 0.00 | 0.00 | 0.00 | 16 | 1006.1 |
| 20260509163405 | 23 | 241 | 3.2 | 11.3 | 0.00 | 0.00 | 0.00 | 17 | 1005.9 |
| 20260509162904 | 23 | 256 | 3.2 | 8.0 | 0.00 | 0.00 | 0.00 | 19 | 1006.0 |
| 20260509162405 | 23 | 291 | 3.2 | 8.0 | 0.00 | 0.00 | 0.00 | 18 | 1005.9 |
| 20260509161904 | 22 | 252 | 1.6 | 11.3 | 0.00 | 0.00 | 0.00 | 22 | 1006.0 |
| 20260509160904 | 22 | 319 | 3.2 | 4.8 | 0.00 | 0.00 | 0.00 | 21 | 1006.1 |
| 20260509155404 | 21 | 211 | 1.6 | 4.8 | 0.00 | 0.00 | 0.00 | 23 | 1006.2 |
| 20260509154904 | 20 | 326 | 3.2 | 4.8 | 0.00 | 0.00 | 0.00 | 23 | 1006.2 |
| 20260509153904 | 20 | 279 | 1.6 | 4.8 | 0.00 | 0.00 | 0.00 | 23 | 1006.4 |
| 20260509152904 | 20 | 225 | 1.6 | 4.8 | 0.00 | 0.00 | 0.00 | 25 | 1006.6 |
| 20260509152404 | 20 | 192 | 0.0 | 4.8 | 0.00 | 0.00 | 0.00 | 25 | 1006.7 |
| 20260509151904 | 20 | 281 | 1.6 | 4.8 | 0.00 | 0.00 | 0.00 | 25 | 1006.8 |
| 20260509151404 | 20 | 296 | 1.6 | 4.8 | 0.00 | 0.00 | 0.00 | 26 | 1006.8 |
| 20260509150904 | 19 | 286 | 3.2 | 4.8 | 0.00 | 0.00 | 0.00 | 26 | 1006.7 |
| 20260509150405 | 19 | 16 | 1.6 | 4.8 | 0.00 | 0.00 | 0.00 | 26 | 1006.6 |
| 20260509145404 | 18 | 18 | 1.6 | 4.8 | 0.00 | 0.00 | 0.00 | 28 | 1006.5 |
| 20260509144905 | 18 | 295 | 1.6 | 4.8 | 0.00 | 0.00 | 0.00 | 27 | 1006.6 |
| 20260509143904 | 18 | 255 | 1.6 | 4.8 | 0.00 | 0.00 | 0.00 | 27 | 1006.7 |
| 20260509143404 | 17 | 246 | 1.6 | 4.8 | 0.00 | 0.00 | 0.00 | 28 | 1006.9 |
| 20260509141904 | 16 | 144 | 0.0 | 3.2 | 0.00 | 0.00 | 0.00 | 29 | 1006.8 |
| 20260509141404 | 16 | 144 | 0.0 | 3.2 | 0.00 | 0.00 | 0.00 | 30 | 1006.8 |
| 20260509135405 | 13 | 144 | 1.6 | 4.8 | 0.00 | 0.00 | 0.00 | 37 | 1006.9 |
| 20260509134904 | 13 | 144 | 1.6 | 4.8 | 0.00 | 0.00 | 0.00 | 39 | 1006.9 |
| 20260509134404 | 12 | 144 | 3.2 | 4.8 | 0.00 | 0.00 | 0.00 | 40 | 1007.0 |
| 20260509133904 | 12 | 146 | 1.6 | 4.8 | 0.00 | 0.00 | 0.00 | 42 | 1007.0 |
| 20260509133404 | 11 | 150 | 3.2 | 4.8 | 0.00 | 0.00 | 0.00 | 44 | 1007.0 |
| 20260509131404 | 9 | 149 | 0.0 | 1.6 | 0.00 | 0.00 | 0.00 | 47 | 1006.9 |
| 20260509130904 | 8 | 149 | 0.0 | 4.8 | 0.00 | 0.00 | 0.00 | 47 | 1006.9 |
| 20260509124404 | 8 | 146 | 0.0 | 4.8 | 0.00 | 0.00 | 0.00 | 46 | 1006.8 |
| 20260509122404 | 9 | 145 | 0.0 | 4.8 | 0.00 | 0.00 | 0.00 | 44 | 1006.4 |
| 20260509115904 | 8 | 138 | 3.2 | 4.8 | 0.00 | 0.00 | 0.00 | 45 | 1006.1 |
| 20260509113404 | 9 | 138 | 3.2 | 4.8 | 0.00 | 0.00 | 0.00 | 43 | 1006.1 |
| 20260509111904 | 9 | 138 | 1.6 | 4.8 | 0.00 | 0.00 | 0.00 | 43 | 1006.2 |
| 20260509111404 | 9 | 137 | 4.8 | 4.8 | 0.00 | 0.00 | 0.00 | 44 | 1006.2 |
| 20260509110404 | 9 | 138 | 0.0 | 4.8 | 0.00 | 0.00 | 0.00 | 43 | 1006.1 |
| 20260509105904 | 9 | 135 | 3.2 | 4.8 | 0.00 | 0.00 | 0.00 | 43 | 1006.1 |
| 20260509105404 | 9 | 142 | 4.8 | 4.8 | 0.00 | 0.00 | 0.00 | 44 | 1006.1 |
| 20260509104403 | 9 | 146 | 3.2 | 4.8 | 0.00 | 0.00 | 0.00 | 43 | 1006.1 |
| 20260509103905 | 9 | 146 | 3.2 | 4.8 | 0.00 | 0.00 | 0.00 | 44 | 1006.0 |
| 20260509103404 | 9 | 146 | 4.8 | 4.8 | 0.00 | 0.00 | 0.00 | 43 | 1006.1 |
| 20260509101904 | 10 | 147 | 1.6 | 4.8 | 0.00 | 0.00 | 0.00 | 42 | 1006.1 |
| 20260509101404 | 10 | 147 | 3.2 | 4.8 | 0.00 | 0.00 | 0.00 | 42 | 1006.0 |
| 20260509095903 | 10 | 155 | 3.2 | 8.0 | 0.00 | 0.00 | 0.00 | 42 | 1006.0 |
| 20260509094904 | 10 | 144 | 0.0 | 8.0 | 0.00 | 0.00 | 0.00 | 41 | 1005.9 |
| 20260509094404 | 10 | 142 | 4.8 | 8.0 | 0.00 | 0.00 | 0.00 | 42 | 1006.0 |
| 20260509093904 | 10 | 137 | 1.6 | 4.8 | 0.00 | 0.00 | 0.00 | 41 | 1006.0 |
| 20260509092404 | 10 | 140 | 1.6 | 4.8 | 0.00 | 0.00 | 0.00 | 41 | 1006.0 |
| 20260509091404 | 10 | 140 | 1.6 | 4.8 | 0.00 | 0.00 | 0.00 | 41 | 1006.0 |
| 20260509090404 | 10 | 136 | 3.2 | 4.8 | 0.00 | 0.00 | 0.00 | 40 | 1006.0 |
| 20260509085904 | 10 | 131 | 3.2 | 4.8 | 0.00 | 0.00 | 0.00 | 40 | 1005.9 |
| 20260509083904 | 11 | 0 | 4.8 | 9.7 | 0.00 | 0.00 | 0.00 | 39 | 1006.0 |
| 20260509082903 | 11 | 136 | 3.2 | 4.8 | 0.00 | 0.00 | 0.00 | 39 | 1006.1 |
| 20260509082404 | 11 | 106 | 3.2 | 4.8 | 0.00 | 0.00 | 0.00 | 39 | 1006.1 |
| 20260509080904 | 11 | 1 | 4.8 | 8.0 | 0.00 | 0.00 | 0.00 | 39 | 1006.2 |
| 20260509080404 | 11 | 121 | 3.2 | 4.8 | 0.00 | 0.00 | 0.00 | 39 | 1006.2 |
| 20260509075904 | 11 | 0 | 3.2 | 4.8 | 0.00 | 0.00 | 0.00 | 39 | 1006.2 |
| 20260509075404 | 11 | 137 | 3.2 | 8.0 | 0.00 | 0.00 | 0.00 | 39 | 1006.2 |
| 20260509074903 | 11 | 133 | 4.8 | 8.0 | 0.00 | 0.00 | 0.00 | 39 | 1006.3 |
| 20260509074403 | 11 | 0 | 3.2 | 4.8 | 0.00 | 0.00 | 0.00 | 39 | 1006.3 |
| 20260509073905 | 11 | 124 | 1.6 | 4.8 | 0.00 | 0.00 | 0.00 | 38 | 1006.3 |
| 20260509073404 | 11 | 13 | 3.2 | 4.8 | 0.00 | 0.00 | 0.00 | 38 | 1006.3 |
| 20260509072904 | 11 | 0 | 3.2 | 4.8 | 0.00 | 0.00 | 0.00 | 38 | 1006.3 |
| 20260509072404 | 11 | 11 | 4.8 | 4.8 | 0.00 | 0.00 | 0.00 | 38 | 1006.3 |
| 20260509071905 | 11 | 0 | 4.8 | 4.8 | 0.00 | 0.00 | 0.00 | 38 | 1006.4 |
| 20260509065904 | 11 | 0 | 4.8 | 8.0 | 0.00 | 0.00 | 0.00 | 38 | 1006.4 |
| 20260509065404 | 11 | 1 | 1.6 | 4.8 | 0.00 | 0.00 | 0.00 | 38 | 1006.5 |
| 20260509064904 | 11 | 0 | 1.6 | 4.8 | 0.00 | 0.00 | 0.00 | 38 | 1006.5 |
| 20260509064404 | 11 | 0 | 1.6 | 4.8 | 0.00 | 0.00 | 0.00 | 37 | 1006.6 |
| 20260509063904 | 11 | 0 | 3.2 | 4.8 | 0.00 | 0.00 | 0.00 | 37 | 1006.6 |
| 20260509063404 | 11 | 0 | 3.2 | 4.8 | 0.00 | 0.00 | 0.00 | 37 | 1006.6 |
| 20260509062904 | 11 | 125 | 1.6 | 4.8 | 0.00 | 0.00 | 0.00 | 38 | 1006.6 |
| 20260509061905 | 11 | 140 | 3.2 | 4.8 | 0.00 | 0.00 | 0.00 | 38 | 1006.7 |
| 20260509061404 | 11 | 114 | 1.6 | 4.8 | 0.00 | 0.00 | 0.00 | 38 | 1006.6 |
| 20260509060904 | 12 | 145 | 1.6 | 4.8 | 0.00 | 0.00 | 0.00 | 36 | 1006.6 |
| 20260509055404 | 12 | 138 | 1.6 | 4.8 | 0.00 | 0.00 | 0.00 | 37 | 1006.6 |
| 20260509054404 | 12 | 141 | 4.8 | 4.8 | 0.00 | 0.00 | 0.00 | 35 | 1006.6 |
| 20260509053904 | 12 | 144 | 1.6 | 4.8 | 0.00 | 0.00 | 0.00 | 35 | 1006.6 |
| 20260509052904 | 12 | 144 | 0.0 | 4.8 | 0.00 | 0.00 | 0.00 | 36 | 1006.7 |
| 20260509052404 | 12 | 144 | 1.6 | 4.8 | 0.00 | 0.00 | 0.00 | 36 | 1006.7 |
| 20260509051904 | 12 | 144 | 3.2 | 4.8 | 0.00 | 0.00 | 0.00 | 35 | 1006.8 |
| 20260509051404 | 12 | 144 | 1.6 | 4.8 | 0.00 | 0.00 | 0.00 | 35 | 1006.8 |
| 20260509045903 | 12 | 147 | 1.6 | 4.8 | 0.00 | 0.00 | 0.00 | 33 | 1006.9 |
| 20260509045404 | 13 | 142 | 1.6 | 4.8 | 0.00 | 0.00 | 0.00 | 34 | 1006.9 |
| 20260509044904 | 13 | 145 | 1.6 | 3.2 | 0.00 | 0.00 | 0.00 | 33 | 1006.9 |
| 20260509044403 | 13 | 145 | 0.0 | 3.2 | 0.00 | 0.00 | 0.00 | 33 | 1006.9 |
| 20260509042904 | 13 | 144 | 1.6 | 4.8 | 0.00 | 0.00 | 0.00 | 33 | 1007.0 |
| 20260509042404 | 13 | 104 | 0.0 | 4.8 | 0.00 | 0.00 | 0.00 | 33 | 1006.9 |
| 20260509041404 | 13 | 136 | 0.0 | 3.2 | 0.00 | 0.00 | 0.00 | 33 | 1006.9 |
| 20260509040404 | 13 | 0 | 1.6 | 4.8 | 0.00 | 0.00 | 0.00 | 31 | 1006.7 |
| 20260509035904 | 14 | 0 | 1.6 | 3.2 | 0.00 | 0.00 | 0.00 | 32 | 1006.8 |
| 20260509035404 | 14 | 0 | 0.0 | 3.2 | 0.00 | 0.00 | 0.00 | 31 | 1006.7 |
| 20260509034904 | 15 | 165 | 0.0 | 3.2 | 0.00 | 0.00 | 0.00 | 30 | 1006.6 |
| 20260509033404 | 16 | 81 | 1.6 | 4.8 | 0.00 | 0.00 | 0.00 | 27 | 1006.3 |
| 20260509032903 | 16 | 158 | 0.0 | 3.2 | 0.00 | 0.00 | 0.00 | 26 | 1006.3 |
| 20260509032404 | 17 | 158 | 1.6 | 3.2 | 0.00 | 0.00 | 0.00 | 26 | 1006.3 |
| 20260509031905 | 17 | 158 | 1.6 | 3.2 | 0.00 | 0.00 | 0.00 | 24 | 1006.1 |
| 20260509031404 | 17 | 158 | 1.6 | 3.2 | 0.00 | 0.00 | 0.00 | 23 | 1006.0 |
| 20260509025404 | 20 | 236 | 1.6 | 4.8 | 0.00 | 0.00 | 0.00 | 20 | 1005.7 |
| 20260509024403 | 20 | 202 | 0.0 | 4.8 | 0.00 | 0.00 | 0.00 | 19 | 1005.5 |
| 20260509023405 | 20 | 269 | 3.2 | 9.7 | 0.00 | 0.00 | 0.00 | 17 | 1005.3 |
| 20260509022405 | 21 | 228 | 3.2 | 9.7 | 0.00 | 0.00 | 0.00 | 17 | 1005.0 |
| 20260509020404 | 22 | 245 | 1.6 | 4.8 | 0.00 | 0.00 | 0.00 | 17 | 1004.6 |
| 20260509014405 | 22 | 279 | 1.6 | 11.3 | 0.00 | 0.00 | 0.00 | 18 | 1004.4 |
| 20260509013403 | 23 | 224 | 1.6 | 4.8 | 0.00 | 0.00 | 0.00 | 17 | 1004.3 |
| 20260509012904 | 23 | 127 | 0.0 | 0.0 | 0.00 | 0.00 | 0.00 | 18 | 1004.3 |
| 20260509011405 | 23 | 328 | 0.0 | 4.8 | 0.00 | 0.00 | 0.00 | 17 | 1004.4 |
| 20260509005904 | 23 | 38 | 3.2 | 4.8 | 0.00 | 0.00 | 0.00 | 17 | 1004.5 |
| 20260509004903 | 23 | 136 | 1.6 | 3.2 | 0.00 | 0.00 | 0.00 | 16 | 1004.4 |
| 20260509004404 | 23 | 78 | 0.0 | 4.8 | 0.00 | 0.00 | 0.00 | 17 | 1004.4 |
| 20260509001904 | 24 | 116 | 0.0 | 4.8 | 0.00 | 0.00 | 0.00 | 16 | 1004.6 |
| 20260509000404 | 25 | 193 | 3.2 | 4.8 | 0.00 | 0.00 | 0.00 | 16 | 1004.7 |
| 20260508235904 | 25 | 239 | 3.2 | 11.3 | 0.00 | 0.00 | 0.00 | 15 | 1004.6 |
| 20260508235404 | 25 | 248 | 3.2 | 11.3 | 0.00 | 0.00 | 0.00 | 16 | 1004.7 |
| 20260508233904 | 24 | 269 | 3.2 | 8.0 | 0.00 | 0.00 | 0.00 | 16 | 1004.7 |
| 20260508233404 | 25 | 79 | 4.8 | 8.0 | 0.00 | 0.00 | 0.00 | 16 | 1004.7 |
| 20260508232905 | 25 | 109 | 3.2 | 11.3 | 0.00 | 0.00 | 0.00 | 15 | 1004.6 |
| 20260508231906 | 25 | 105 | 4.8 | 11.3 | 0.00 | 0.00 | 0.00 | 14 | 1004.8 |
| 20260508230905 | 26 | 31 | 1.6 | 4.8 | 0.00 | 0.00 | 0.00 | 16 | 1004.7 |
| 20260508224405 | 25 | 196 | 1.6 | 8.0 | 0.00 | 0.00 | 0.00 | 15 | 1005.0 |
| 20260508223905 | 25 | 97 | 1.6 | 8.0 | 0.00 | 0.00 | 0.00 | 16 | 1005.0 |
| 20260508223405 | 25 | 22 | 3.2 | 8.0 | 0.00 | 0.00 | 0.00 | 15 | 1005.2 |
| 20260508222905 | 25 | 305 | 1.6 | 8.0 | 0.00 | 0.00 | 0.00 | 16 | 1005.2 |
| 20260508221905 | 25 | 205 | 3.2 | 9.7 | 0.00 | 0.00 | 0.00 | 16 | 1005.4 |
| 20260508221405 | 25 | 205 | 3.2 | 9.7 | 0.00 | 0.00 | 0.00 | 16 | 1005.4 |
| 20260508220906 | 25 | 39 | 3.2 | 9.7 | 0.00 | 0.00 | 0.00 | 15 | 1005.6 |
| 20260508220405 | 24 | 203 | 3.2 | 9.7 | 0.00 | 0.00 | 0.00 | 17 | 1005.6 |
| 20260508215904 | 24 | 48 | 3.2 | 11.3 | 0.00 | 0.00 | 0.00 | 15 | 1005.6 |
| 20260508214405 | 24 | 217 | 8.0 | 16.1 | 0.00 | 0.00 | 0.00 | 16 | 1005.7 |
| 20260508212905 | 24 | 233 | 4.8 | 14.5 | 0.00 | 0.00 | 0.00 | 16 | 1006.1 |
| 20260508211905 | 25 | 202 | 4.8 | 11.3 | 0.00 | 0.00 | 0.00 | 15 | 1006.2 |
| 20260508211405 | 25 | 267 | 1.6 | 8.0 | 0.00 | 0.00 | 0.00 | 15 | 1006.3 |
| 20260508210905 | 25 | 237 | 3.2 | 8.0 | 0.00 | 0.00 | 0.00 | 16 | 1006.4 |
| 20260508204905 | 25 | 250 | 3.2 | 9.7 | 0.00 | 0.00 | 0.00 | 15 | 1006.5 |
| 20260508203905 | 24 | 217 | 3.2 | 14.5 | 0.00 | 0.00 | 0.00 | 16 | 1006.8 |
| 20260508202905 | 24 | 277 | 4.8 | 14.5 | 0.00 | 0.00 | 0.00 | 16 | 1007.0 |
| 20260508200905 | 24 | 349 | 3.2 | 12.9 | 0.00 | 0.00 | 0.00 | 15 | 1007.1 |